• In Hungary
  • List of Countries
  • For 7 days
  • Water Temperature
  • Satellite Maps
  • Weather Map
  • News
  • Weather Widgets
  • user-avatar
    Login

    Hourly Weather Carcaixent

    Today, 20 January, Saturday

    Time Temperature Precipitation Wind Pressure Humidity
    00:00 +11°C° 0 mm 3 mps 765 mmHg 71%
    01:00 +10°C° 0 mm 3 mps 765 mmHg 73%
    02:00 +10°C° 0 mm 4 mps 765 mmHg 75%
    03:00 +8°C° 0 mm 4 mps 765 mmHg 78%
    04:00 +8°C° 0 mm 4 mps 766 mmHg 78%
    05:00 +8°C° 0 mm 4 mps 766 mmHg 79%
    06:00 +8°C° 0 mm 4 mps 766 mmHg 80%
    07:00 +10°C° 0 mm 4 mps 766 mmHg 75%
    08:00 +10°C° 0 mm 5 mps 766 mmHg 69%
    09:00 +12°C° 0 mm 5 mps 766 mmHg 63%
    10:00 +14°C° 0 mm 5 mps 766 mmHg 54%
    11:00 +16°C° 0 mm 6 mps 765 mmHg 45%
    12:00 +20°C° 0 mm 6 mps 765 mmHg 36%
    13:00 +20°C° 0 mm 7 mps 765 mmHg 35%
    14:00 +20°C° 0 mm 7 mps 764 mmHg 33%
    15:00 +21°C° 0 mm 7 mps 764 mmHg 31%
    16:00 +20°C° 0 mm 7 mps 764 mmHg 34%
    17:00 +17°C° 0 mm 8 mps 764 mmHg 37%
    18:00 +16°C° 0 mm 8 mps 764 mmHg 40%
    19:00 +15°C° 0 mm 9 mps 765 mmHg 43%
    20:00 +15°C° 0 mm 9 mps 765 mmHg 45%
    21:00 +15°C° 0 mm 9 mps 765 mmHg 47%
    22:00 +15°C° 0 mm 9 mps 765 mmHg 51%
    23:00 +13°C° 0 mm 9 mps 765 mmHg 54%

    Tomorrow, 21 January, Sunday

    Time Temperature Precipitation Wind Pressure Humidity
    00:00 +13°C° 0 mm 10 mps 765 mmHg 57%
    01:00 +13°C° 0 mm 10 mps 765 mmHg 60%
    02:00 +12°C° 0 mm 10 mps 765 mmHg 62%
    03:00 +12°C° 0 mm 10 mps 765 mmHg 65%
    04:00 +12°C° 0 mm 10 mps 765 mmHg 68%
    05:00 +12°C° 0 mm 9 mps 765 mmHg 70%
    06:00 +11°C° 0 mm 9 mps 765 mmHg 73%
    07:00 +12°C° 0 mm 9 mps 766 mmHg 71%
    08:00 +13°C° 0 mm 9 mps 766 mmHg 68%
    09:00 +15°C° 0 mm 8 mps 766 mmHg 66%
    10:00 +17°C° 0 mm 8 mps 766 mmHg 59%
    11:00 +20°C° 0 mm 7 mps 766 mmHg 53%
    12:00 +22°C° 0 mm 7 mps 766 mmHg 46%
    13:00 +23°C° 0 mm 6 mps 766 mmHg 45%
    14:00 +23°C° 0 mm 6 mps 766 mmHg 44%
    15:00 +23°C° 0 mm 5 mps 765 mmHg 43%
    16:00 +22°C° 0 mm 5 mps 766 mmHg 49%
    17:00 +20°C° 0 mm 4 mps 766 mmHg 56%
    18:00 +18°C° 0 mm 4 mps 766 mmHg 62%
    19:00 +17°C° 0 mm 4 mps 767 mmHg 66%
    20:00 +15°C° 0 mm 4 mps 767 mmHg 70%
    21:00 +15°C° 0 mm 4 mps 768 mmHg 74%
    22:00 +14°C° 0 mm 4 mps 768 mmHg 76%
    23:00 +14°C° 0 mm 4 mps 768 mmHg 79%

    Day after tomorrow, 22 January, Monday

    Time Temperature Precipitation Wind Pressure Humidity
    00:00 +13°C° 0 mm 4 mps 768 mmHg 81%
    01:00 +13°C° 0 mm 4 mps 768 mmHg 82%
    02:00 +12°C° 0 mm 4 mps 767 mmHg 82%
    03:00 +12°C° 0 mm 4 mps 767 mmHg 83%
    04:00 +12°C° 0 mm 4 mps 767 mmHg 82%
    05:00 +12°C° 0 mm 4 mps 767 mmHg 82%
    06:00 +12°C° 0 mm 4 mps 767 mmHg 81%
    07:00 +13°C° 0 mm 4 mps 768 mmHg 76%
    08:00 +14°C° 0 mm 4 mps 768 mmHg 71%
    09:00 +15°C° 0 mm 4 mps 768 mmHg 66%
    10:00 +18°C° 0 mm 4 mps 768 mmHg 58%
    11:00 +20°C° 0 mm 3 mps 767 mmHg 50%
    12:00 +22°C° 0 mm 3 mps 767 mmHg 42%
    13:00 +23°C° 0 mm 4 mps 766 mmHg 41%
    14:00 +23°C° 0 mm 4 mps 766 mmHg 40%
    15:00 +23°C° 0 mm 4 mps 765 mmHg 39%
    16:00 +22°C° 0 mm 4 mps 766 mmHg 45%
    17:00 +20°C° 0 mm 4 mps 766 mmHg 51%
    18:00 +18°C° 0 mm 4 mps 766 mmHg 57%
    19:00 +17°C° 0 mm 3 mps 766 mmHg 61%
    20:00 +16°C° 0 mm 3 mps 767 mmHg 64%
    21:00 +15°C° 0 mm 2 mps 767 mmHg 68%
    22:00 +14°C° 0 mm 3 mps 767 mmHg 70%
    23:00 +13°C° 0 mm 3 mps 767 mmHg 72%

    23 January, Tuesday

    Time Temperature Precipitation Wind Pressure Humidity
    00:00 +13°C° 0 mm 3 mps 767 mmHg 74%
    01:00 +13°C° 0 mm 3 mps 767 mmHg 74%
    02:00 +12°C° 0 mm 3 mps 767 mmHg 75%
    03:00 +12°C° 0 mm 3 mps 767 mmHg 76%
    04:00 +12°C° 0 mm 3 mps 767 mmHg 75%
    05:00 +11°C° 0 mm 3 mps 767 mmHg 75%
    06:00 +11°C° 0 mm 3 mps 767 mmHg 75%
    07:00 +12°C° 0 mm 3 mps 768 mmHg 68%
    08:00 +13°C° 0 mm 3 mps 768 mmHg 62%
    09:00 +14°C° 0 mm 3 mps 768 mmHg 56%
    10:00 +18°C° 0 mm 2 mps 768 mmHg 49%
    11:00 +20°C° 0 mm 2 mps 768 mmHg 43%
    12:00 +23°C° 0 mm 1 mps 768 mmHg 36%
    13:00 +23°C° 0 mm 2 mps 767 mmHg 34%
    14:00 +24°C° 0 mm 2 mps 767 mmHg 33%
    15:00 +25°C° 0 mm 2 mps 766 mmHg 31%
    16:00 +21°C° 0 mm 2 mps 767 mmHg 38%
    17:00 +19°C° 0 mm 2 mps 767 mmHg 44%
    18:00 +16°C° 0 mm 2 mps 767 mmHg 51%
    19:00 +16°C° 0 mm 2 mps 768 mmHg 53%
    20:00 +15°C° 0 mm 1 mps 768 mmHg 55%
    21:00 +15°C° 0 mm 1 mps 769 mmHg 57%
    22:00 +14°C° 0 mm 1 mps 769 mmHg 59%
    23:00 +14°C° 0 mm 1 mps 769 mmHg 61%

    24 January, Wednesday

    Time Temperature Precipitation Wind Pressure Humidity
    00:00 +12°C° 0 mm 0 mps 769 mmHg 63%
    01:00 +12°C° 0 mm 0 mps 768 mmHg 66%
    02:00 +13°C° 0 mm 1 mps 768 mmHg 69%
    03:00 +13°C° 0 mm 1 mps 768 mmHg 71%
    04:00 +12°C° 0 mm 1 mps 768 mmHg 72%
    05:00 +12°C° 0 mm 1 mps 768 mmHg 73%
    06:00 +12°C° 0 mm 1 mps 768 mmHg 75%
    07:00 +13°C° 0 mm 1 mps 769 mmHg 68%
    08:00 +15°C° 0 mm 1 mps 769 mmHg 62%
    09:00 +16°C° 0 mm 1 mps 769 mmHg 56%
    10:00 +19°C° 0 mm 1 mps 769 mmHg 51%
    11:00 +20°C° 0 mm 1 mps 769 mmHg 46%
    12:00 +22°C° 0 mm 1 mps 769 mmHg 41%
    13:00 +21°C° 0 mm 2 mps 769 mmHg 41%
    14:00 +22°C° 0 mm 3 mps 768 mmHg 40%
    15:00 +22°C° 0 mm 3 mps 767 mmHg 40%
    16:00 +20°C° 0 mm 3 mps 768 mmHg 52%
    17:00 +17°C° 0 mm 3 mps 768 mmHg 63%
    18:00 +14°C° 0 mm 3 mps 768 mmHg 75%
    19:00 +13°C° 0 mm 3 mps 768 mmHg 79%
    20:00 +14°C° 0 mm 2 mps 769 mmHg 82%
    21:00 +13°C° 0 mm 2 mps 769 mmHg 86%
    22:00 +13°C° 0 mm 2 mps 769 mmHg 85%
    23:00 +13°C° 0 mm 2 mps 769 mmHg 85%

    25 January, Thursday

    Time Temperature Precipitation Wind Pressure Humidity
    00:00 +13°C° 0 mm 2 mps 768 mmHg 85%
    01:00 +13°C° 0 mm 2 mps 768 mmHg 85%
    02:00 +12°C° 0 mm 2 mps 768 mmHg 85%
    03:00 +12°C° 0 mm 2 mps 767 mmHg 85%
    04:00 +12°C° 0 mm 2 mps 767 mmHg 86%
    05:00 +12°C° 0 mm 2 mps 767 mmHg 86%
    06:00 +12°C° 0 mm 2 mps 767 mmHg 86%
    07:00 +13°C° 0 mm 2 mps 767 mmHg 81%
    08:00 +14°C° 0 mm 2 mps 767 mmHg 75%
    09:00 +15°C° 0 mm 2 mps 767 mmHg 69%
    10:00 +17°C° 0 mm 3 mps 767 mmHg 58%
    11:00 +19°C° 0 mm 3 mps 766 mmHg 48%
    12:00 +21°C° 0 mm 3 mps 766 mmHg 37%
    13:00 +21°C° 0 mm 4 mps 765 mmHg 35%
    14:00 +21°C° 0 mm 5 mps 764 mmHg 33%
    15:00 +22°C° 0 mm 5 mps 764 mmHg 32%
    16:00 +20°C° 0 mm 5 mps 764 mmHg 36%
    17:00 +17°C° 0 mm 5 mps 764 mmHg 41%
    18:00 +15°C° 0 mm 5 mps 764 mmHg 45%
    19:00 +15°C° 0 mm 5 mps 764 mmHg 47%
    20:00 +14°C° 0 mm 5 mps 764 mmHg 48%
    21:00 +14°C° 0 mm 6 mps 764 mmHg 50%
    22:00 +13°C° 0 mm 6 mps 764 mmHg 52%
    23:00 +12°C° 0 mm 7 mps 764 mmHg 55%
    Show more